This is the latest recevied weather packets stored in our database for station/object AG1T-1. If no packets are shown the sender has not sent any weather packets the latest 10 day(s).
| Time | Temp. | Humidity | Pressure | Rain* | Wind** | Luminosity | Snow |
|---|---|---|---|---|---|---|---|
| 1777844403 | 24.44° C | 18% | 1015.9 hPa | 0 mm | - | 726 W/m² | - |
| 1777843803 | 24.44° C | 18% | 1016.1 hPa | 0 mm | - | 837 W/m² | - |
| 1777843203 | 24.44° C | 19% | 1016.2 hPa | 0 mm | - | 851 W/m² | - |
| 1777842603 | 24.44° C | 17% | 1016.4 hPa | 0 mm | - | 844 W/m² | - |
| 1777842003 | 24.44° C | 20% | 1016.6 hPa | 0 mm | - | 860 W/m² | - |
| 1777841403 | 24.44° C | 18% | 1016.7 hPa | 0 mm | - | 861 W/m² | - |
| 1777840803 | 23.89° C | 20% | 1016.8 hPa | 0 mm | - | 863 W/m² | - |
| 1777840203 | 23.89° C | 20% | 1017.1 hPa | 0 mm | - | 882 W/m² | - |
| 1777839603 | 23.33° C | 25% | 1017.1 hPa | 0 mm | - | 895 W/m² | - |
| 1777839003 | 23.33° C | 22% | 1017.3 hPa | 0 mm | - | 895 W/m² | - |
| 1777838403 | 22.78° C | 25% | 1017.4 hPa | 0 mm | - | 909 W/m² | - |
| 1777837803 | 22.22° C | 25% | 1017.6 hPa | 0 mm | - | 888 W/m² | - |
| 1777837203 | 22.22° C | 25% | 1017.7 hPa | 0 mm | - | 800 W/m² | - |
| 1777836603 | 22.22° C | 26% | 1017.8 hPa | 0 mm | - | 896 W/m² | - |
| 1777836003 | 22.22° C | 25% | 1018.1 hPa | 0 mm | - | 914 W/m² | - |
| 1777835403 | 21.11° C | 27% | 1018.3 hPa | 0 mm | - | 911 W/m² | - |
| 1777834803 | 20.56° C | 29% | 1018.5 hPa | 0 mm | - | 902 W/m² | - |
| 1777834203 | 19.44° C | 30% | 1018.6 hPa | 0 mm | - | 896 W/m² | - |
| 1777833603 | 20° C | 37% | 1018.8 hPa | 0 mm | - | 891 W/m² | - |
| 1777833003 | 18.89° C | 34% | 1018.9 hPa | 0 mm | - | 884 W/m² | - |
| 1777832403 | 18.33° C | 37% | 1019.1 hPa | 0 mm | - | 870 W/m² | - |
| 1777831203 | 18.33° C | 38% | 1019.3 hPa | 0 mm | - | 779 W/m² | - |
| 1777830603 | 17.78° C | 38% | 1019.3 hPa | 0 mm | - | 824 W/m² | - |
| 1777830003 | 17.22° C | 38% | 1019.4 hPa | 0 mm | - | 798 W/m² | - |
| 1777829403 | 16.67° C | 38% | 1019.5 hPa | 0 mm | - | 812 W/m² | - |
* Rain latest hour (hover to see other rain measurements)
** Current wind speed in m/s (hover to see current wind gust speed)